Location: �clusier
(49.9361°N, 2.7869°E)
Time: 22:25:13
(UTC+00:00)

Cosmos 1953 - Pass Details

Date: 16 June 2021
Orbit: 537 x 557 km, 82.5° (Epoch: 02 August)

Event Time Altitude Azimuth Distance (km) Brightness Sun altitude
Rises 21:05:10 0° 350° (N) 2,755 7.1 -8.1°
Reaches altitude 10° 21:07:21 10° 352° (N) 1,855 6.1 -8.3°
Maximum altitude 21:11:27 82° 80° (E) 571 2.3 -8.7°
Drops below altitude 10° 21:15:30 10° 168° (SSE) 1,839 4.4 -9.1°
Enters shadow 21:15:31 10° 168° (SSE) 1,842 4.4 -9.1°
